| time (UTC) | temp F | wind direction | speed knots | gust knots | rain 1hr in | rain 24hr in | rain mn in | humidity % | barometer mb |
| 20260906125824 | 64 | 67 | 0.0 | 0.0 | 0.00 | 0.00 | 0.00 | 97 | 1023.4 |
| 20260906125721 | 64 | 68 | 0.0 | 0.0 | 0.00 | 0.00 | 0.00 | 97 | 1023.3 |
| 20260906124738 | 64 | 137 | 0.0 | 0.0 | 0.00 | 0.00 | 0.00 | 97 | 1023.3 |
| 20260906121722 | 62 | 67 | 0.0 | 0.0 | 0.00 | 0.00 | 0.00 | 96 | 1022.8 |
| 20260906115821 | 63 | 67 | 0.0 | 0.0 | 0.00 | 0.00 | 0.00 | 97 | 1022.7 |
| 20260906114823 | 63 | 45 | 0.0 | 0.0 | 0.00 | 0.00 | 0.00 | 97 | 1022.4 |
| 20260906113821 | 63 | 45 | 0.0 | 0.0 | 0.00 | 0.00 | 0.00 | 97 | 1022.1 |
| 20260906112822 | 63 | 45 | 0.0 | 0.0 | 0.00 | 0.00 | 0.00 | 97 | 1022.0 |
| 20260906110921 | 64 | 45 | 0.0 | 0.0 | 0.00 | 0.00 | 0.00 | 96 | 1022.0 |
| 20260906110019 | 63 | 22 | 0.0 | 0.0 | 0.00 | 0.00 | 0.00 | 96 | 1022.0 |
| 20260906103022 | 64 | 22 | 0.0 | 0.0 | 0.00 | 0.00 | 0.00 | 96 | 1021.8 |
| 20260906101021 | 64 | 22 | 0.0 | 0.0 | 0.00 | 0.00 | 0.00 | 97 | 1021.9 |
| 20260906094119 | 65 | 22 | 0.0 | 0.0 | 0.00 | 0.00 | 0.00 | 96 | 1021.2 |
| 20260906092121 | 66 | 180 | 0.0 | 0.0 | 0.00 | 0.00 | 0.00 | 97 | 1021.2 |
| 20260906091122 | 66 | 22 | 0.0 | 0.0 | 0.00 | 0.00 | 0.00 | 97 | 1021.2 |
| 20260906090121 | 66 | 30 | 0.0 | 0.0 | 0.00 | 0.00 | 0.00 | 96 | 1021.1 |
| 20260906085220 | 66 | 22 | 0.0 | 0.0 | 0.00 | 0.00 | 0.00 | 97 | 1021.2 |
| 20260906084221 | 66 | 40 | 0.0 | 0.0 | 0.00 | 0.00 | 0.00 | 97 | 1021.3 |
| 20260906080322 | 67 | 37 | 0.0 | 0.0 | 0.00 | 0.00 | 0.00 | 96 | 1021.3 |
| 20260906075320 | 67 | 22 | 0.0 | 0.0 | 0.00 | 0.00 | 0.00 | 96 | 1021.1 |
| 20260906075219 | 67 | 22 | 0.0 | 0.0 | 0.00 | 0.00 | 0.00 | 97 | 1021.0 |
| 20260906074220 | 67 | 22 | 0.0 | 0.0 | 0.00 | 0.00 | 0.00 | 96 | 1021.2 |
| 20260906073220 | 67 | 58 | 0.0 | 0.0 | 0.00 | 0.00 | 0.00 | 96 | 1021.3 |
| 20260906072222 | 67 | 180 | 0.0 | 0.0 | 0.00 | 0.00 | 0.00 | 96 | 1021.4 |
| 20260906071222 | 67 | 202 | 0.0 | 0.0 | 0.00 | 0.00 | 0.00 | 97 | 1021.3 |
| 20260906070219 | 67 | 48 | 0.0 | 0.0 | 0.00 | 0.00 | 0.00 | 96 | 1021.3 |
| 20260906065220 | 66 | 67 | 0.0 | 0.0 | 0.00 | 0.00 | 0.00 | 95 | 1021.5 |
| 20260906064237 | 66 | 45 | 0.0 | 0.0 | 0.00 | 0.00 | 0.00 | 96 | 1021.5 |
| 20260906063222 | 66 | 45 | 0.0 | 0.0 | 0.00 | 0.00 | 0.00 | 96 | 1021.6 |
| 20260906062320 | 66 | 45 | 0.0 | 0.0 | 0.00 | 0.00 | 0.00 | 96 | 1021.7 |
| 20260906061323 | 66 | 45 | 0.0 | 0.0 | 0.00 | 0.00 | 0.00 | 96 | 1021.6 |
| 20260906055322 | 67 | 45 | 0.0 | 0.0 | 0.00 | 0.00 | 0.00 | 95 | 1021.7 |
| 20260906054321 | 67 | 45 | 0.0 | 0.0 | 0.00 | 0.00 | 0.00 | 96 | 1021.6 |
| 20260906054220 | 67 | 45 | 0.0 | 0.0 | 0.00 | 0.00 | 0.00 | 95 | 1021.5 |
| 20260906053223 | 67 | 45 | 0.0 | 0.0 | 0.00 | 0.00 | 0.00 | 95 | 1021.6 |
| 20260906052222 | 68 | 45 | 0.0 | 0.0 | 0.00 | 0.00 | 0.00 | 96 | 1021.5 |
| 20260906051221 | 68 | 22 | 0.0 | 0.0 | 0.00 | 0.00 | 0.00 | 95 | 1021.4 |
| 20260906051121 | 68 | 22 | 0.0 | 0.0 | 0.00 | 0.00 | 0.00 | 96 | 1021.4 |
| 20260906051019 | 68 | 22 | 0.0 | 0.0 | 0.00 | 0.00 | 0.00 | 95 | 1021.5 |
| 20260906045935 | 68 | 22 | 0.0 | 0.0 | 0.00 | 0.00 | 0.00 | 96 | 1021.4 |
| 20260906045034 | 68 | 42 | 0.0 | 0.0 | 0.00 | 0.00 | 0.00 | 96 | 1021.5 |
| 20260906044034 | 68 | 22 | 0.0 | 0.0 | 0.00 | 0.00 | 0.00 | 96 | 1021.6 |
| 20260906043036 | 69 | 45 | 0.0 | 0.0 | 0.00 | 0.00 | 0.00 | 96 | 1021.6 |
| 20260906042052 | 69 | 58 | 0.0 | 0.0 | 0.00 | 0.00 | 0.00 | 96 | 1021.6 |
| 20260906041134 | 69 | 58 | 0.0 | 0.0 | 0.00 | 0.00 | 0.00 | 96 | 1021.4 |
| 20260906040136 | 69 | 48 | 0.0 | 0.0 | 0.00 | 0.00 | 0.00 | 95 | 1021.3 |
| 20260906034235 | 70 | 67 | 0.0 | 0.0 | 0.00 | 0.00 | 0.00 | 96 | 1021.0 |
| 20260906032350 | 70 | 67 | 0.0 | 0.0 | 0.00 | 0.00 | 0.00 | 96 | 1020.8 |
| 20260906031433 | 70 | 67 | 0.0 | 0.0 | 0.00 | 0.00 | 0.00 | 96 | 1020.8 |
| 20260906031334 | 70 | 67 | 0.0 | 0.0 | 0.00 | 0.00 | 0.00 | 96 | 1020.8 |
| 20260906030336 | 70 | 67 | 0.0 | 0.0 | 0.00 | 0.00 | 0.00 | 95 | 1020.9 |
| 20260906024433 | 70 | 67 | 0.0 | 0.0 | 0.00 | 0.00 | 0.00 | 94 | 1020.4 |
| 20260906023449 | 70 | 67 | 0.0 | 0.0 | 0.00 | 0.00 | 0.00 | 94 | 1020.4 |
| 20260906022533 | 69 | 45 | 0.0 | 0.0 | 0.00 | 0.00 | 0.00 | 95 | 1020.0 |
| 20260906021535 | 69 | 67 | 0.0 | 0.0 | 0.00 | 0.00 | 0.00 | 95 | 1019.9 |
| 20260906020534 | 69 | 45 | 0.0 | 0.0 | 0.00 | 0.00 | 0.00 | 94 | 1019.9 |
| 20260906015533 | 70 | 45 | 0.0 | 0.0 | 0.00 | 0.00 | 0.00 | 94 | 1019.6 |
| 20260906012534 | 71 | 45 | 0.0 | 0.0 | 0.00 | 0.00 | 0.00 | 93 | 1018.9 |
| 20260906011633 | 71 | 45 | 0.0 | 0.0 | 0.00 | 0.00 | 0.00 | 93 | 1018.9 |
| 20260906011537 | 71 | 45 | 0.0 | 0.0 | 0.00 | 0.00 | 0.00 | 93 | 1018.9 |
| 20260906010533 | 71 | 45 | 0.0 | 0.0 | 0.00 | 0.00 | 0.00 | 93 | 1018.8 |
| 20260906005533 | 71 | 67 | 0.0 | 0.0 | 0.00 | 0.00 | 0.00 | 92 | 1018.6 |
| 20260906004537 | 72 | 45 | 0.0 | 0.0 | 0.00 | 0.00 | 0.00 | 92 | 1018.8 |
| 20260906003536 | 72 | 45 | 0.0 | 0.0 | 0.00 | 0.00 | 0.00 | 90 | 1018.7 |
| 20260906002633 | 72 | 143 | 0.0 | 0.0 | 0.00 | 0.00 | 0.00 | 90 | 1018.7 |
| 20260906001651 | 73 | 67 | 0.0 | 0.0 | 0.00 | 0.00 | 0.00 | 88 | 1018.4 |
| 20260906000633 | 73 | 67 | 0.0 | 0.0 | 0.00 | 0.00 | 0.00 | 88 | 1018.2 |
| 20260905235649 | 74 | 67 | 0.0 | 0.0 | 0.00 | 0.00 | 0.00 | 86 | 1018.6 |
| 20260905234635 | 74 | 67 | 0.0 | 0.0 | 0.00 | 0.00 | 0.00 | 84 | 1018.5 |
| 20260905233634 | 75 | 45 | 0.0 | 0.0 | 0.00 | 0.00 | 0.00 | 84 | 1018.7 |
| 20260905232634 | 74 | 180 | 0.0 | 0.0 | 0.00 | 0.00 | 0.00 | 83 | 1018.5 |
| 20260905231634 | 75 | 22 | 0.0 | 0.0 | 0.00 | 0.00 | 0.00 | 83 | 1018.7 |
| 20260905230635 | 75 | 42 | 0.0 | 0.0 | 0.00 | 0.00 | 0.00 | 82 | 1018.6 |
| 20260905225634 | 75 | 48 | 0.0 | 0.0 | 0.00 | 0.00 | 0.00 | 80 | 1018.8 |
| 20260905224637 | 76 | 32 | 0.0 | 0.0 | 0.00 | 0.00 | 0.00 | 80 | 1018.8 |
| 20260905223634 | 76 | 60 | 0.0 | 0.0 | 0.00 | 0.00 | 0.00 | 80 | 1018.9 |
| 20260905222634 | 77 | 26 | 0.0 | 0.0 | 0.00 | 0.00 | 0.00 | 79 | 1018.8 |
| 20260905220634 | 78 | 57 | 0.0 | 0.0 | 0.00 | 0.00 | 0.00 | 79 | 1018.6 |
| 20260905215733 | 79 | 50 | 0.0 | 0.0 | 0.00 | 0.00 | 0.00 | 78 | 1018.4 |
| 20260905214750 | 79 | 87 | 0.0 | 0.0 | 0.00 | 0.00 | 0.00 | 78 | 1018.4 |
| 20260905213748 | 79 | 66 | 0.0 | 0.0 | 0.00 | 0.00 | 0.00 | 78 | 1018.7 |
| 20260905212749 | 80 | 58 | 0.0 | 0.0 | 0.00 | 0.00 | 0.00 | 77 | 1018.8 |
| 20260905211748 | 82 | 65 | 0.0 | 0.0 | 0.00 | 0.00 | 0.00 | 76 | 1018.7 |
| 20260905210749 | 83 | 90 | 0.0 | 0.0 | 0.00 | 0.00 | 0.00 | 74 | 1018.6 |
| 20260905205833 | 84 | 112 | 0.0 | 0.0 | 0.00 | 0.00 | 0.00 | 75 | 1018.8 |
| 20260905204849 | 84 | 157 | 0.0 | 0.0 | 0.00 | 0.00 | 0.00 | 75 | 1018.6 |
| 20260905202935 | 84 | 128 | 0.0 | 0.0 | 0.00 | 0.00 | 0.00 | 75 | 1018.8 |
| 20260905201933 | 84 | 157 | 0.0 | 0.0 | 0.00 | 0.00 | 0.00 | 73 | 1018.7 |
| 20260905200952 | 84 | 169 | 0.0 | 0.0 | 0.00 | 0.00 | 0.00 | 74 | 1018.8 |
| 20260905200034 | 84 | 157 | 0.0 | 0.0 | 0.00 | 0.00 | 0.00 | 72 | 1018.6 |
| 20260905195934 | 84 | 164 | 0.0 | 0.0 | 0.00 | 0.00 | 0.00 | 71 | 1018.7 |
| 20260905194934 | 85 | 112 | 0.0 | 0.0 | 0.00 | 0.00 | 0.00 | 71 | 1018.7 |
| 20260905193934 | 85 | 49 | 0.0 | 0.0 | 0.00 | 0.00 | 0.00 | 74 | 1019.0 |
| 20260905192934 | 84 | 152 | 0.0 | 0.0 | 0.00 | 0.00 | 0.00 | 76 | 1019.0 |
| 20260905191033 | 85 | 66 | 0.0 | 0.0 | 0.00 | 0.00 | 0.00 | 74 | 1018.9 |
| 20260905190035 | 85 | 163 | 0.0 | 0.0 | 0.00 | 0.00 | 0.00 | 76 | 1019.3 |
| 20260905185033 | 84 | 82 | 0.0 | 0.0 | 0.00 | 0.00 | 0.00 | 77 | 1019.2 |
| 20260905182133 | 83 | 63 | 0.0 | 0.0 | 0.00 | 0.00 | 0.00 | 79 | 1019.1 |
| 20260905181151 | 82 | 67 | 0.0 | 0.0 | 0.00 | 0.00 | 0.00 | 77 | 1019.2 |
| 20260905180233 | 82 | 25 | 0.0 | 0.0 | 0.00 | 0.00 | 0.00 | 76 | 1019.3 |
| 20260905175234 | 83 | 67 | 0.0 | 0.0 | 0.00 | 0.00 | 0.00 | 78 | 1019.3 |
| 20260905174234 | 83 | 110 | 0.0 | 0.0 | 0.00 | 0.00 | 0.00 | 83 | 1019.3 |
| 20260905174133 | 83 | 106 | 0.0 | 0.0 | 0.00 | 0.00 | 0.00 | 83 | 1019.5 |
| 20260905173135 | 82 | 67 | 0.0 | 0.0 | 0.00 | 0.01 | 0.00 | 86 | 1019.6 |
| 20260905171234 | 80 | 67 | 0.0 | 0.0 | 0.00 | 0.04 | 0.00 | 90 | 1019.9 |
| 20260905171136 | 80 | 67 | 0.0 | 0.0 | 0.00 | 0.05 | 0.00 | 89 | 1019.9 |
| 20260905170134 | 79 | 67 | 0.0 | 0.0 | 0.00 | 0.08 | 0.00 | 88 | 1019.8 |
| 20260905165151 | 79 | 37 | 0.0 | 0.0 | 0.00 | 0.23 | 0.00 | 90 | 1019.9 |
| 20260905164235 | 79 | 86 | 0.0 | 0.0 | 0.00 | 0.35 | 0.00 | 89 | 1019.9 |
| 20260905163233 | 79 | 81 | 0.0 | 0.0 | 0.00 | 0.35 | 0.00 | 89 | 1019.8 |
| 20260905162233 | 78 | 91 | 0.0 | 0.0 | 0.00 | 0.35 | 0.00 | 90 | 1019.8 |
| 20260905161233 | 77 | 40 | 0.0 | 0.0 | 0.00 | 0.35 | 0.00 | 91 | 1019.6 |
| 20260905160333 | 77 | 51 | 0.0 | 0.0 | 0.00 | 0.35 | 0.00 | 94 | 1019.6 |
| 20260905155351 | 76 | 59 | 0.0 | 0.0 | 0.00 | 0.35 | 0.00 | 96 | 1019.6 |
| 20260905154334 | 77 | 67 | 0.0 | 0.0 | 0.00 | 0.35 | 0.00 | 96 | 1019.5 |
| 20260905153333 | 77 | 66 | 0.0 | 0.0 | 0.00 | 0.35 | 0.00 | 96 | 1019.6 |
| 20260905151434 | 76 | 38 | 0.0 | 0.0 | 0.00 | 0.35 | 0.00 | 97 | 1019.7 |
| 20260905150433 | 75 | 61 | 0.0 | 0.0 | 0.00 | 0.35 | 0.00 | 97 | 1019.6 |
| 20260905145434 | 75 | 60 | 0.0 | 0.0 | 0.00 | 0.35 | 0.00 | 98 | 1019.3 |
| 20260905144432 | 74 | 67 | 0.0 | 0.0 | 0.00 | 0.35 | 0.00 | 97 | 1019.3 |
| 20260905143434 | 73 | 50 | 0.0 | 0.0 | 0.00 | 0.35 | 0.00 | 98 | 1019.2 |
| 20260905142531 | 73 | 90 | 0.0 | 0.0 | 0.00 | 0.35 | 0.00 | 97 | 1019.2 |
| 20260905135633 | 72 | 87 | 0.0 | 0.0 | 0.00 | 0.35 | 0.00 | 97 | 1019.1 |
| 20260905134633 | 72 | 53 | 0.0 | 0.0 | 0.00 | 0.35 | 0.00 | 98 | 1019.0 |
| 20260905133634 | 71 | 67 | 0.0 | 0.0 | 0.00 | 0.35 | 0.00 | 98 | 1018.7 |
| 20260905133550 | 71 | 67 | 0.0 | 0.0 | 0.00 | 0.35 | 0.00 | 98 | 1018.7 |
| 20260905132534 | 71 | 67 | 0.0 | 0.0 | 0.00 | 0.35 | 0.00 | 98 | 1018.6 |
| 20260905130635 | 71 | 75 | 0.0 | 0.0 | 0.00 | 0.35 | 0.00 | 98 | 1018.1 |